TimeCST,TemperatureF,Dew PointF,Humidity,Sea Level PressureIn,VisibilityMPH,Wind Direction,Wind SpeedMPH,Gust SpeedMPH,PrecipitationIn,Events,Conditions,WindDirDegrees,DateUTC
12:15 AM,21.2,-4.0,33,30.25,10.0,North,29.9,36.8,N/A,,Mostly Cloudy,360,2014-01-27 06:15:00
12:35 AM,21.2,-2.2,36,30.26,10.0,North,25.3,33.4,N/A,,Partly Cloudy,360,2014-01-27 06:35:00
12:55 AM,21.2,-2.2,36,30.26,10.0,North,25.3,33.4,N/A,,Scattered Clouds,360,2014-01-27 06:55:00
1:15 AM,19.4,-2.2,39,30.27,10.0,North,27.6,36.8,N/A,,Partly Cloudy,10,2014-01-27 07:15:00
1:35 AM,19.4,-2.2,39,30.28,10.0,NNE,25.3,32.2,N/A,,Clear,20,2014-01-27 07:35:00
1:55 AM,19.4,-2.2,39,30.29,10.0,North,23.0,28.8,N/A,,Clear,360,2014-01-27 07:55:00
2:15 AM,17.6,-5.8,35,30.31,10.0,North,21.9,32.2,N/A,,Clear,10,2014-01-27 08:15:00
2:35 AM,17.6,-5.8,35,30.31,10.0,NNE,23.0,29.9,N/A,,Clear,20,2014-01-27 08:35:00
2:55 AM,15.8,-5.8,38,30.32,10.0,North,18.4,28.8,N/A,,Clear,10,2014-01-27 08:55:00
3:15 AM,15.8,-7.6,35,30.34,10.0,North,27.6,33.4,N/A,,Clear,360,2014-01-27 09:15:00
3:35 AM,15.8,-9.4,32,30.35,10.0,North,20.7,27.6,N/A,,Clear,360,2014-01-27 09:35:00
3:55 AM,15.8,-9.4,32,30.36,10.0,North,20.7,29.9,N/A,,Scattered Clouds,10,2014-01-27 09:55:00
4:15 AM,15.8,-9.4,32,30.37,10.0,NNE,19.6,24.2,N/A,,Partly Cloudy,20,2014-01-27 10:15:00
4:35 AM,14.0,-9.4,35,30.38,10.0,North,21.9,27.6,N/A,,Partly Cloudy,360,2014-01-27 10:35:00
4:55 AM,14.0,-9.4,35,30.38,10.0,North,18.4,25.3,N/A,,Partly Cloudy,360,2014-01-27 10:55:00
5:15 AM,12.2,-9.4,38,30.39,10.0,North,18.4,26.5,N/A,,Clear,10,2014-01-27 11:15:00
5:35 AM,12.2,-9.4,38,30.39,10.0,North,19.6,25.3,N/A,,Clear,10,2014-01-27 11:35:00
5:55 AM,12.2,-9.4,38,30.39,10.0,North,17.3,24.2,N/A,,Clear,360,2014-01-27 11:55:00
6:15 AM,12.2,-9.4,38,30.40,10.0,North,20.7,25.3,N/A,,Clear,10,2014-01-27 12:15:00
6:35 AM,12.2,-11.2,34,30.40,10.0,North,18.4,23.0,N/A,,Clear,360,2014-01-27 12:35:00
6:55 AM,10.4,-9.4,41,30.40,10.0,North,19.6,24.2,N/A,,Clear,360,2014-01-27 12:55:00
7:15 AM,10.4,-13.0,34,30.41,10.0,North,20.7,27.6,N/A,,Clear,360,2014-01-27 13:15:00
7:35 AM,10.4,-13.0,34,30.42,10.0,North,18.4,28.8,N/A,,Scattered Clouds,360,2014-01-27 13:35:00
7:55 AM,10.4,-11.2,37,30.43,10.0,North,15.0,23.0,N/A,,Partly Cloudy,360,2014-01-27 13:55:00
8:15 AM,10.4,-11.2,37,30.43,10.0,North,16.1,25.3,N/A,,Clear,360,2014-01-27 14:15:00
8:35 AM,10.4,-11.2,37,30.45,10.0,North,18.4,21.9,N/A,,Partly Cloudy,360,2014-01-27 14:35:00
8:55 AM,10.4,-11.2,37,30.46,10.0,North,17.3,23.0,N/A,,Clear,10,2014-01-27 14:55:00
9:15 AM,10.4,-11.2,37,30.47,10.0,North,16.1,23.0,N/A,,Clear,360,2014-01-27 15:15:00
9:35 AM,10.4,-11.2,37,30.47,10.0,North,15.0,-,N/A,,Clear,10,2014-01-27 15:35:00
9:55 AM,10.4,-11.2,37,30.48,10.0,North,15.0,-,N/A,,Clear,360,2014-01-27 15:55:00
10:15 AM,10.4,-9.4,41,30.48,10.0,North,15.0,21.9,N/A,,Clear,360,2014-01-27 16:15:00
10:35 AM,12.2,-9.4,38,30.48,10.0,North,16.1,21.9,N/A,,Clear,10,2014-01-27 16:35:00
10:55 AM,12.2,-9.4,38,30.48,10.0,North,16.1,20.7,N/A,,Clear,350,2014-01-27 16:55:00
11:15 AM,12.2,-9.4,38,30.48,10.0,North,16.1,20.7,N/A,,Clear,10,2014-01-27 17:15:00
11:35 AM,14.0,-9.4,35,30.48,10.0,North,10.4,19.6,N/A,,Clear,10,2014-01-27 17:35:00
11:55 AM,14.0,-9.4,35,30.47,10.0,NNE,12.7,19.6,N/A,,Clear,30,2014-01-27 17:55:00
12:15 PM,14.0,-11.2,32,30.45,10.0,NNE,12.7,-,N/A,,Partly Cloudy,20,2014-01-27 18:15:00
12:35 PM,14.0,-9.4,35,30.45,10.0,North,16.1,19.6,N/A,,Clear,10,2014-01-27 18:35:00
12:55 PM,14.0,-9.4,35,30.44,10.0,North,11.5,16.1,N/A,,Clear,360,2014-01-27 18:55:00
1:15 PM,15.8,-9.4,32,30.43,10.0,North,10.4,-,N/A,,Partly Cloudy,10,2014-01-27 19:15:00
1:35 PM,14.0,-9.4,35,30.43,10.0,NNE,10.4,-,N/A,,Partly Cloudy,20,2014-01-27 19:35:00
1:55 PM,15.8,-9.4,32,30.43,10.0,North,11.5,-,N/A,,Clear,10,2014-01-27 19:55:00
2:15 PM,15.8,-7.6,35,30.41,10.0,NNE,12.7,-,N/A,,Clear,20,2014-01-27 20:15:00
2:35 PM,15.8,-9.4,32,30.40,10.0,North,11.5,18.4,N/A,,Clear,10,2014-01-27 20:35:00
2:55 PM,15.8,-11.2,30,30.41,10.0,NNE,10.4,18.4,N/A,,Clear,30,2014-01-27 20:55:00
3:15 PM,15.8,-9.4,32,30.40,10.0,NNE,8.1,-,N/A,,Clear,30,2014-01-27 21:15:00
3:35 PM,15.8,-9.4,32,30.41,10.0,NNE,10.4,-,N/A,,Clear,30,2014-01-27 21:35:00
3:55 PM,15.8,-11.2,30,30.42,10.0,NNW,9.2,-,N/A,,Partly Cloudy,340,2014-01-27 21:55:00
4:15 PM,15.8,-11.2,30,30.42,10.0,North,10.4,-,N/A,,Scattered Clouds,10,2014-01-27 22:15:00
4:35 PM,15.8,-11.2,30,30.43,10.0,North,8.1,-,N/A,,Partly Cloudy,360,2014-01-27 22:35:00
4:55 PM,15.8,-11.2,30,30.43,10.0,North,9.2,-,N/A,,Clear,350,2014-01-27 22:55:00
5:15 PM,15.8,-9.4,32,30.42,10.0,North,9.2,-,N/A,,Clear,360,2014-01-27 23:15:00
5:35 PM,14.0,-9.4,35,30.42,10.0,North,11.5,-,N/A,,Clear,10,2014-01-27 23:35:00
5:55 PM,14.0,-9.4,35,30.42,10.0,North,9.2,-,N/A,,Clear,360,2014-01-27 23:55:00
6:15 PM,14.0,-9.4,35,30.42,10.0,North,10.4,-,N/A,,Scattered Clouds,10,2014-01-28 00:15:00
6:35 PM,14.0,-9.4,35,30.42,10.0,North,8.1,-,N/A,,Partly Cloudy,360,2014-01-28 00:35:00
6:55 PM,14.0,-9.4,35,30.43,10.0,NNE,9.2,-,N/A,,Clear,20,2014-01-28 00:55:00
7:15 PM,14.0,-9.4,35,30.42,10.0,NNE,9.2,-,N/A,,Partly Cloudy,20,2014-01-28 01:15:00
7:35 PM,14.0,-9.4,35,30.43,10.0,NNE,11.5,-,N/A,,Partly Cloudy,20,2014-01-28 01:35:00
7:55 PM,14.0,-9.4,35,30.43,10.0,NNE,9.2,-,N/A,,Partly Cloudy,20,2014-01-28 01:55:00
8:15 PM,14.0,-9.4,35,30.43,10.0,North,9.2,-,N/A,,Clear,10,2014-01-28 02:15:00
8:35 PM,14.0,-9.4,35,30.43,10.0,NNE,9.2,-,N/A,,Clear,20,2014-01-28 02:35:00
8:55 PM,14.0,-9.4,35,30.43,10.0,NNE,8.1,-,N/A,,Clear,20,2014-01-28 02:55:00
9:15 PM,12.2,-9.4,38,30.44,10.0,NE,5.8,-,N/A,,Clear,40,2014-01-28 03:15:00
9:35 PM,12.2,-9.4,38,30.45,10.0,NNE,5.8,-,N/A,,Partly Cloudy,20,2014-01-28 03:35:00
9:55 PM,12.2,-9.4,38,30.47,10.0,NNE,5.8,-,N/A,,Scattered Clouds,20,2014-01-28 03:55:00
10:15 PM,12.2,-7.6,41,30.46,10.0,NNE,5.8,-,N/A,,Overcast,30,2014-01-28 04:15:00
10:35 PM,12.2,-7.6,41,30.46,10.0,NE,5.8,-,N/A,,Mostly Cloudy,40,2014-01-28 04:35:00
10:55 PM,12.2,-7.6,41,30.45,10.0,NE,4.6,-,N/A,,Scattered Clouds,40,2014-01-28 04:55:00
11:15 PM,12.2,-7.6,41,30.45,10.0,NNE,5.8,-,N/A,,Mostly Cloudy,30,2014-01-28 05:15:00
11:35 PM,12.2,-7.6,41,30.46,10.0,NNE,5.8,-,N/A,,Mostly Cloudy,30,2014-01-28 05:35:00
11:55 PM,12.2,-7.6,41,30.47,10.0,NNE,3.5,-,N/A,,Partly Cloudy,30,2014-01-28 05:55:00